Weather History for Torrington, WY

Change the Weather History Date:

Saturday, August 24, 2013

  Actual Average Record
Temperature  
Mean Temperature 76 °F 70 °F  
Max Temperature 94 °F 86 °F 99 °F (2000)
Min Temperature 57 °F 53 °F 48 °F (2010)
Degree Days  
Heating Degree Days 0 1  
Month to date heating degree days 0 3  
Since 1 June heating degree days 36 84  
Since 1 July heating degree days 2 9  
Cooling Degree Days 11 5  
Month to date cooling degree days 192 184  
Year to date cooling degree days 679 600  
Since 1 June cooling degree days 640 582  
Growing Degree Days 25 (Base 50)    
Moisture  
Dew Point 52 °F    
Average Humidity 54    
Maximum Humidity 86    
Minimum Humidity 22    
Precipitation  
Precipitation T in 0.02 in 0.33 in (2002)
Month to date precipitation 0.83 1.07  
Year to date precipitation 6.76 10.76  
Sea Level Pressure  
Sea Level Pressure 29.85 in    
Wind  
Wind Speed 5 mph (SW)    
Max Wind Speed 32 mph    
Max Gust Speed 41 mph    
Visibility 10 miles    
Events Rain , Thunderstorm    
T = Trace of Precipitation, MM = Missing Value Source: NWS Daily Summary

Daily Weather History Graph

Daily Weather History Graph

Search for Another Location

Airport:

Trip Planner

Search our weather history database for the weather conditions in past years. The results will help you decide how hot, cold, wet, or windy it might be!

Date:

Astronomy

Aug. 24, 2013 Rise Set
Actual Time 6:14 AM MDT 7:42 PM MDT
Civil Twilight 5:44 AM MDT 8:12 PM MDT
Nautical Twilight 5:09 AM MDT 8:47 PM MDT
Astronomical Twilight 4:31 AM MDT 9:24 PM MDT
Moon 9:32 PM MDT (8/24) 10:21 AM MDT (8/24)
Length of Visible Light 14h 27m
Length of Day
13h 28m
Waning Gibbous, 84% of the Moon is Illuminated
Aug 24
Waning Gibbous
Aug 28
Last Quarter
Sep 5
New
Sep 12
First Quarter
Sep 19
Full

Hourly Weather History & Observations

Time (MDT) Temp. Dew Point Humidity Pressure Visibility Wind Dir Wind Speed Gust Speed Precip Events Conditions
12:53 AM 72.0 °F 53.1 °F 51% 29.79 in 10.0 mi WSW 4.6 mph - N/A   Clear
1:53 AM 66.9 °F 54.0 °F 63% 29.78 in 10.0 mi ESE 8.1 mph - N/A   Partly Cloudy
2:53 AM 66.0 °F 54.0 °F 65% 29.80 in 10.0 mi Calm Calm - N/A   Clear
3:53 AM 60.1 °F 54.0 °F 80% 29.81 in 10.0 mi ENE 8.1 mph - N/A   Clear
4:53 AM 57.9 °F 54.0 °F 87% 29.82 in 10.0 mi East 4.6 mph - N/A   Clear
5:53 AM 57.9 °F 53.1 °F 84% 29.85 in 10.0 mi ESE 4.6 mph - N/A   Clear
6:53 AM 59.0 °F 54.0 °F 83% 29.86 in 10.0 mi SE 6.9 mph - N/A   Clear
7:53 AM 64.0 °F 54.0 °F 70% 29.86 in 10.0 mi SE 4.6 mph - N/A   Clear
8:53 AM 70.0 °F 55.0 °F 59% 29.88 in 10.0 mi Calm Calm - N/A   Clear
9:53 AM 77.0 °F 53.1 °F 43% 29.86 in 10.0 mi Calm Calm - N/A   Clear
10:53 AM 81.0 °F 51.1 °F 35% 29.86 in 10.0 mi West 4.6 mph - N/A   Clear
11:53 AM 87.1 °F 51.1 °F 29% 29.83 in 10.0 mi WSW 4.6 mph - N/A   Clear
12:53 PM 90.0 °F 48.9 °F 24% 29.81 in 10.0 mi SSW 4.6 mph - N/A   Clear
1:53 PM 91.0 °F 48.9 °F 23% 29.81 in 10.0 mi South 4.6 mph - N/A   Partly Cloudy
2:53 PM 93.0 °F 48.0 °F 21% 29.80 in 10.0 mi SW 11.5 mph - N/A   Partly Cloudy
3:53 PM 90.0 °F 48.0 °F 24% 29.81 in 10.0 mi NW 5.8 mph - N/A   Scattered Clouds
4:53 PM 90.0 °F 48.9 °F 24% 29.81 in 10.0 mi WNW 4.6 mph - N/A   Partly Cloudy
5:53 PM 88.0 °F 48.9 °F 26% 29.82 in 10.0 mi Calm Calm - N/A   Mostly Cloudy
6:14 PM 82.4 °F 51.8 °F 35% 29.99 in 10.0 mi SW 10.4 mph - N/A Thunderstorm Mostly Cloudy
6:38 PM 80.6 °F 51.8 °F 37% 29.99 in 10.0 mi West 17.3 mph 34.5 mph 0.00 in Rain Light Rain
6:48 PM 82.4 °F 51.8 °F 35% 29.98 in 10.0 mi WSW 8.1 mph - 0.00 in Rain Light Rain
6:53 PM 82.9 °F 51.1 °F 33% 29.85 in 10.0 mi SW 8.1 mph - 0.00 in   Mostly Cloudy
7:53 PM 80.1 °F 50.0 °F 35% 29.85 in 10.0 mi Calm Calm - N/A   Mostly Cloudy
8:53 PM 73.9 °F 57.0 °F 55% 29.86 in 10.0 mi East 8.1 mph - 0.00 in   Mostly Cloudy
9:53 PM 73.0 °F 55.0 °F 53% 29.86 in 10.0 mi SE 3.5 mph - N/A   Clear
10:53 PM 68.0 °F 57.9 °F 70% 29.86 in 10.0 mi NNW 3.5 mph - N/A   Clear
11:53 PM 68.0 °F 55.0 °F 63% 29.86 in 10.0 mi WNW 3.5 mph - N/A   Clear